This is the latest recevied weather packets stored in our database for station/object K1AWR. If no packets are shown the sender has not sent any weather packets the latest 10 day(s).
| Time | Temp. | Humidity | Pressure | Rain* | Wind** | Luminosity | Snow |
|---|---|---|---|---|---|---|---|
| 1777704117 | 10° C | 78% | 1012 hPa | 0 mm | - | 0 W/m² | - |
| 1777703815 | 10° C | 76% | 1012 hPa | 0 mm | - | 0 W/m² | - |
| 1777703512 | 10.56° C | 75% | 1012 hPa | 0 mm | - | 0 W/m² | - |
| 1777703209 | 10.56° C | 75% | 1011.8 hPa | 0 mm | - | 0 W/m² | - |
| 1777702907 | 10.56° C | 74% | 1011.9 hPa | 0 mm | - | 0 W/m² | - |
| 1777702605 | 10° C | 77% | 1011.8 hPa | 0 mm | - | 0 W/m² | - |
| 1777702303 | 10° C | 81% | 1012.2 hPa | 0 mm | - | 0 W/m² | - |
| 1777702002 | 10° C | 81% | 1012.1 hPa | 0 mm | - | 0 W/m² | - |
| 1777701699 | 10° C | 81% | 1012 hPa | 0 mm | - | 0 W/m² | - |
| 1777701397 | 10° C | 82% | 1012.2 hPa | 0 mm | - | 0 W/m² | - |
| 1777701095 | 10° C | 80% | 1012 hPa | 0 mm | - | 0 W/m² | - |
| 1777700794 | 10° C | 79% | 1012 hPa | 0 mm | - | 0 W/m² | - |
| 1777700491 | 10° C | 78% | 1012 hPa | 0 mm | - | 0 W/m² | - |
| 1777700188 | 10° C | 78% | 1012.2 hPa | 0 mm | - | 0 W/m² | - |
| 1777699885 | 10.56° C | 78% | 1012.1 hPa | 0 mm | - | 0 W/m² | - |
| 1777699583 | 10.56° C | 77% | 1012.3 hPa | 0 mm | - | 0 W/m² | - |
| 1777699281 | 10.56° C | 76% | 1012.1 hPa | 0 mm | - | 0 W/m² | - |
| 1777698979 | 10.56° C | 76% | 1012.2 hPa | 0 mm | - | 0 W/m² | - |
| 1777698677 | 10.56° C | 76% | 1012.1 hPa | 0 mm | - | 0 W/m² | - |
| 1777698373 | 10.56° C | 75% | 1012.3 hPa | 0 mm | - | 0 W/m² | - |
| 1777698070 | 11.11° C | 73% | 1012.2 hPa | 0 mm | - | 0 W/m² | - |
| 1777697766 | 11.11° C | 71% | 1012.3 hPa | 0 mm | - | 0 W/m² | - |
| 1777697463 | 11.11° C | 70% | 1012.3 hPa | 0 mm | - | 0 W/m² | - |
| 1777697160 | 11.11° C | 70% | 1012.2 hPa | 0 mm | - | 0 W/m² | - |
| 1777696857 | 11.11° C | 70% | 1012.1 hPa | 0 mm | - | 0 W/m² | - |
* Rain latest hour (hover to see other rain measurements)
** Current wind speed in m/s (hover to see current wind gust speed)